Tracking 19283 objects as of 17-Nov-2018
HD Live streaming from Space Station
objects crossing your sky now

GALS 2

Track GALS 2 now!
GALS 2 is classified as:


NORAD ID: 23717
Int'l Code: 1995-063A
Perigee: 35,858.5 km
Apogee: 35,950.8 km
Inclination: 13.4 °
Period: 1,441.8 minutes
Semi major axis: 42275 km
RCS: 8.9125 m2 (large)
Launch date: November 17, 1995
Source: Commonwealth of Independent States (former USSR) (CIS)
Launch site: TYURATAM MISSILE AND SPACE COMPLEX (TTMTR)
aabbcc
Your satellite tracking list
Your tracking list is empty




NASA's NSSDC Master Catalog

Two Line Element Set (TLE):
1 23717U 95063A   18320.48294785 -.00000076 +00000-0 +00000-0 0  9998
2 23717 013.4084 024.3528 0010917 268.7128 195.8135 00.99877532083966
Source of the keplerian elements: AFSPC